TimeAKST,TemperatureF,Dew PointF,Humidity,Sea Level PressureIn,VisibilityMPH,Wind Direction,Wind SpeedMPH,Gust SpeedMPH,PrecipitationIn,Events,Conditions,WindDirDegrees,DateUTC
12:53 AM,-7.1,-11.9,79,29.48,10.0,Calm,Calm,-,N/A,,Clear,0,2013-02-03 09:53:00
1:53 AM,-9.0,-14.1,79,29.47,10.0,NW,4.6,-,N/A,,Clear,310,2013-02-03 10:53:00
3:53 AM,-11.9,-18.0,74,29.44,10.0,Calm,Calm,-,N/A,,Clear,0,2013-02-03 12:53:00
4:53 AM,-13.0,-18.0,78,29.42,10.0,Calm,Calm,-,N/A,,Clear,0,2013-02-03 13:53:00
5:53 AM,-14.1,-18.9,79,29.40,10.0,Calm,Calm,-,N/A,,Clear,0,2013-02-03 14:53:00
6:53 AM,-15.0,-20.0,78,29.39,10.0,Calm,Calm,-,N/A,,Clear,0,2013-02-03 15:53:00
7:53 AM,-16.1,-20.9,79,29.38,10.0,Calm,Calm,-,N/A,,Partly Cloudy,0,2013-02-03 16:53:00
8:53 AM,-15.0,-20.0,78,29.38,10.0,NNW,3.5,-,N/A,,Mostly Cloudy,330,2013-02-03 17:53:00
9:53 AM,-14.1,-18.9,79,29.38,10.0,Calm,Calm,-,N/A,,Mostly Cloudy,0,2013-02-03 18:53:00
10:53 AM,-11.0,-16.1,78,29.38,10.0,Calm,Calm,-,N/A,,Mostly Cloudy,0,2013-02-03 19:53:00
11:53 AM,-7.1,-11.0,83,29.38,10.0,Calm,Calm,-,N/A,,Mostly Cloudy,0,2013-02-03 20:53:00
12:53 PM,-2.9,-7.1,82,29.39,10.0,Calm,Calm,-,N/A,,Mostly Cloudy,0,2013-02-03 21:53:00
1:53 PM,1.0,-4.0,79,29.39,10.0,Calm,Calm,-,0.01,,Mostly Cloudy,0,2013-02-03 22:53:00
2:53 PM,3.0,-0.9,84,29.40,10.0,Calm,Calm,-,N/A,,Mostly Cloudy,0,2013-02-03 23:53:00
3:53 PM,3.9,-0.0,84,29.41,10.0,Calm,Calm,-,N/A,,Mostly Cloudy,0,2013-02-04 00:53:00
4:53 PM,5.0,-0.0,80,29.42,10.0,Calm,Calm,-,N/A,,Mostly Cloudy,0,2013-02-04 01:53:00
5:53 PM,5.0,-0.0,80,29.44,10.0,Calm,Calm,-,N/A,,Partly Cloudy,0,2013-02-04 02:53:00
6:53 PM,3.9,-0.0,84,29.45,10.0,Calm,Calm,-,N/A,,Mostly Cloudy,0,2013-02-04 03:53:00
7:53 PM,5.0,-0.0,80,29.46,10.0,Calm,Calm,-,N/A,,Overcast,0,2013-02-04 04:53:00
8:53 PM,5.0,1.0,84,29.48,10.0,Calm,Calm,-,N/A,,Overcast,0,2013-02-04 05:53:00
9:53 PM,5.0,1.0,84,29.49,10.0,North,3.5,-,N/A,,Overcast,350,2013-02-04 06:53:00
10:53 PM,5.0,-0.0,80,29.50,8.0,Calm,Calm,-,0.00,Snow,Light Snow,0,2013-02-04 07:53:00
11:53 PM,3.9,-0.0,84,29.52,10.0,NNW,3.5,-,0.00,,Overcast,330,2013-02-04 08:53:00